JO-97
1 43803U 18099AX  24345.40007457  .00019376  00000-0  10642-2 0  9991
2 43803  97.4966  40.6642 0009658  61.1705 299.0495 15.14119855329294
Suomi 100
1 43804U 18099AY  24345.57614818  .00015764  00000-0  90233-3 0  9997
2 43804  97.5037  40.5145 0014959  59.2165 301.0536 15.12627454329286
ISAT
1 43879U 18111D   24345.57203682  .00024793  00000-0  11663-2 0  9998
2 43879  97.6061 251.2666 0013391 104.7124 255.5595 15.19475211326111
UWE-4
1 43880U 18111E   24345.52420032  .00020197  00000-0  10085-2 0  9996
2 43880  97.5993 250.6858 0016410 115.3812 244.9123 15.17402129324099
Sparrow
1 43881U 18111F   24345.47277767  .00028068  00000-0  12917-2 0  9997
2 43881  97.6174 253.4613 0009850 135.2194 224.9838 15.20244728326171
Prox-1
1 44339U 19036A   24345.62406603  .00018486  00000-0  27368-2 0  9992
2 44339  23.9970 164.9123 0007072 171.9596 188.1013 14.73587838291238
SONATE
1 44400U 19038Q   24345.08012656  .00060332  00000-0  10683-2 0  9993
2 44400  97.7132 348.8691 0011185 180.8601 179.2632 15.50021697301169
Taurus 1
1 44530U 19059C   24345.77073062  .00013319  00000-0  27190-2 0  9998
2 44530  98.5886 111.4602 0010689 231.6585 128.3655 14.60996877277497
Duchifat 3
1 44854U 19089C   24345.59551737  .00035185  00000-0  12391-2 0  9992
2 44854  36.9511  49.6130 0010887 140.0329 220.1224 15.28371570275082
TO-108
1 44881U 19093C   24345.87369914  .00002217  00000-0  26688-3 0  9997
2 44881  97.8138  59.2173 0015410 103.3477 256.9457 14.84815714269251
FloripaSat 1
1 44885U 19093G   24345.77658294  .00010668  00000-0  98659-3 0  9998
2 44885  97.8302  67.4074 0012448  90.9118 269.3528 14.94676529269707
RS-44
1 44909U 19096E   24345.48800750  .00000037  00000-0  10616-3 0  9998
2 44909  82.5215 347.6228 0217456 359.3267   0.7509 12.79736799231527
UPMSat 2
1 46276U 20061E   24345.27505326  .00046091  00000-0  92423-3 0  9995
2 46276  97.2741  50.5848 0000906 155.9240 204.2052 15.46570480237263
AmicalSat
1 46287U 20061R   24345.62742060  .00289118  00000-0  17399-2 0  9991
2 46287  97.3173  56.1517 0002849 281.1827  78.9118 15.76899742236908
SALSAT
1 46495U 20068K   24345.65013272  .00012757  00000-0  62698-3 0  9994
2 46495  97.8395 310.1978 0014871  70.3935 289.8902 15.18090934231035
CubeSX-Sirius-HSE
1 47951U 21022V   24345.86719814  .00054861  00000-0  12555-2 0  9999
2 47951  97.4401 245.3379 0006951 214.2821 145.7978 15.42597397205636
CubeSX-HSE
1 47952U 21022W   24345.79730666  .00054364  00000-0  12294-2 0  9998
2 47952  97.4397 245.4135 0007071 212.4776 147.6037 15.42955517205634
KSU-Cubesat
1 47954U 21022Y   24345.47082559  .00107877  00000-0  17592-2 0  9990
2 47954  97.4403 247.7741 0005557 185.3178 174.8016 15.52208873205471
GRBAlpha
1 47959U 21022AD  24345.82040054  .00059052  00000-0  13356-2 0  9993
2 47959  97.4398 245.6046 0006964 212.9756 147.1058 15.42930080204464
Orbicraft-Zorkiy
1 47960U 21022AE  24345.83028025  .00079273  00000-0  14703-2 0  9994
2 47960  97.4434 247.8773 0005501 199.6630 160.4409 15.48669348205276
TUBIN
1 48900U 21059X   24345.75343019  .00035195  00000-0  81811-3 0  9993
2 48900  97.6614 137.1748 0005250 178.3187 181.8078 15.42243851192015
LEDSAT
1 49069U 21073D   24345.67312910  .00038606  00000-0  10276-2 0  9999
2 49069  97.4167  56.8380 0014773  19.1735 341.0063 15.37994409183440
CUTE
1 49263U 21088D   24345.55853200  .00045676  00000-0  13686-2 0  9993
2 49263  97.4758  51.7312 0010986 175.2787 184.8561 15.34304067176534
TeikyoSat 4
1 49396U 21102B   24345.87797165  .00004078  00000-0  28189-3 0  9995
2 49396  97.4369  24.7214 0013776  37.8228 322.3965 15.06190171169338
Z-Sat
1 49399U 21102E   24345.88746906  .00007136  00000-0  42124-3 0  9999
2 49399  97.4085  26.8606 0019451  14.3101 345.8676 15.11666397169658
KOSEN 1
1 49402U 21102H   24345.37031325  .00012486  00000-0  64875-3 0  9991
2 49402  97.4006  28.5808 0017082 356.9623   3.1504 15.16100471169791
HO-113
1 50466U 21131B   24345.82953557  .00001318  00000-0  42944-3 0  9990
2 50466  98.5213  70.0799 0003459 330.3756  29.7236 14.40336665155425
IRIS-A
1 51044U 22002BN  24345.47541344  .00068024  00000-0  12918-2 0  9993
2 51044  97.3610  52.8634 0004803 118.3182 241.8553 15.48040015161520
Foresail-1
1 52766U 22057AL  24345.63194415  .00053538  00000-0  10108-2 0  9999
2 52766  97.5967 117.3045 0007261 223.6996 136.3679 15.48255853141585
SNUGLITE 2
1 52899U 22065F   24345.35549730  .00003291  00000-0  66231-3 0  9998
2 52899  98.1419 123.5196 0006959 328.5509  31.5275 14.62205695129998
IO-117
1 53106U 22080B   24340.33076919 -.00000003  00000-0  00000-0 0  9992
2 53106  70.1317 133.0636 0008362  68.7653 291.3899  6.42557789 56265
FO-118
1 54684U 22167C   24345.85344324  .00112162  00000-0  15552-2 0  9999
2 54684  97.6134 137.8105 0007737 246.6222 113.4218 15.56643178111494
SSS-2B
1 56184U 23054G   24345.82636980  .00621956  16120-3  16840-2 0  9991
2 56184  97.3321 249.1386 0006524 115.4055 244.7896 15.94228772 93618
SO-120
1 56992U 23084BU  24345.61174179  .00152108  00000-0  19212-2 0  9996
2 56992  97.5355 110.0324 0003375 119.9674 240.1917 15.59033441 83328
MRC-100
1 56993U 23084BV  24345.60614457  .00368185  00000-0  22890-2 0  9994
2 56993  97.5307 111.9130 0001958 304.0124  56.0955 15.75937400 83459
UmKA 1 (RS40S)
1 57172U 23091G   24345.87100141  .00009290  00000-0  54805-3 0  9992
2 57172  97.5889  36.3581 0014275 234.0412 125.9495 15.11689391 80143
CubeBel-2 (EU11S)
1 57175U 23091K   24345.86739831  .00013074  00000-0  72504-3 0  9999
2 57175  97.5887  36.6581 0012349 245.6730 114.3212 15.13842077 80163
VERONIKA
1 58261U 23174F   24345.75451194  .00048133  00000-0  13482-2 0  9992
2 58261  97.4412  60.3484 0008754 339.5251  20.5641 15.36432156 60660
KAFASAT
1 58317U 23174BP  24345.78019755  .00083382  00000-0  16598-2 0  9996
2 58317  97.4334  62.3069 0007507 306.2649  53.7907 15.46593100 60811
ENSO
1 58470U 23185J   24345.76375600  .00036606  00000-0  10477-2 0  9997
2 58470  97.4036  51.7537 0009978  17.5048 342.6537 15.35808486 57113
EIRSAT-1
1 58472U 23185L   24345.78739561  .00044769  00000-0  11840-2 0  9995
2 58472  97.4030  52.1433 0009198  16.5373 343.6170 15.38228178 57147
SONATE-2
1 59112U 24043Q   24345.62106978  .00020335  00000-0  77468-3 0  9996
2 59112  97.4949 108.6734 0013331  39.1703 321.0498 15.26666941 42644
MO-122
1 60209U 24125G   24345.07534306  .00027282  00000-0  10298-2 0  9990
2 60209  97.2989 193.6565 0024691  65.7920 294.5895 15.26701535 24170
GRBBeta
1 60237U 24128C   24345.57330804  .00007999  00000-0  65345-3 0  9993
2 60237  61.9944 349.3495 0030810  12.2900 347.8934 14.99741578 23026
Curium One
1 60242U 24128H   24345.40211608  .00014456  00000-0  11481-2 0  9998
2 60242  61.9848 350.0034 0031050   4.2538 355.8809 15.00346036 23009
ROBUSTA-3A
1 60243U 24128J   24345.35966489  .00014552  00000-0  11656-2 0  9998
2 60243  61.9915 350.4690 0029066   1.7811 358.3377 15.00062408 22990
CatSat
1 60246U 24125J   24345.52392422  .00021292  00000-0  83668-3 0  9999
2 60246  97.2790 194.8575 0048808  18.9480 341.3560 15.24576828 22342
CySat-1
1 61501U 98067WZ  24345.48587021  .00346950  00000-0  21199-2 0  9997
2 61501  51.6282 156.7491 0013143 268.3689  91.5805 15.75702266  9891
AO-123
1 61781U 24199AY  24345.83602687  .00013912  00000-0  57711-3 0  9996
2 61781  97.3802 210.0645 0019011 113.1630 247.1613 15.23808965 49317
